Voltar ao catálogo

STARLINK-35223

AtivoComunicaçõesVLEO
NORAD 65494·PAYLOAD·🇺🇸 United States

Lançado Sep 5, 2025 de Cape Canaveral Space Force Station

Loading…

Próximas Passagens (próximas 24 horas)

TLE

AtualizadoSource: CelesTrak SupGP

Época: Sep 14, 2026, 15:15 UTC

1 65494C 25198C   26257.63590278  .00007787  00000+0  23018-3 0  2577
2 65494  53.1571 109.1967 0001401  80.6625  51.9609 15.34369297    18

Acompanhe STARLINK-35223 em tempo real com AllMySat

Download on the App Store